Year,Month,Day,Hour,Minute,Value (Times are PST for temperature in C)
2017,07,06,00,00,17.50
2017,07,06,00,01,17.50
2017,07,06,00,02,17.50
2017,07,06,00,03,17.50
2017,07,06,00,04,17.40
2017,07,06,00,05,17.40
2017,07,06,00,06,17.40
2017,07,06,00,07,17.40
2017,07,06,00,08,17.30
2017,07,06,00,09,17.30
2017,07,06,00,10,17.30
2017,07,06,00,11,17.30
2017,07,06,00,12,17.30
2017,07,06,00,13,17.30
2017,07,06,00,14,17.20
2017,07,06,00,15,17.20
2017,07,06,00,16,17.20
2017,07,06,00,17,17.20
2017,07,06,00,18,17.20
2017,07,06,00,19,17.20
2017,07,06,00,20,17.10
2017,07,06,00,21,17.10
2017,07,06,00,22,17.10
2017,07,06,00,23,17.10
2017,07,06,00,24,17.10
2017,07,06,00,25,17.10
2017,07,06,00,26,17.10
2017,07,06,00,27,17.00
2017,07,06,00,28,17.00
2017,07,06,00,29,16.90
2017,07,06,00,30,16.90
2017,07,06,00,31,16.90
2017,07,06,00,32,16.80
2017,07,06,00,33,16.80
2017,07,06,00,34,16.80
2017,07,06,00,35,16.70
2017,07,06,00,36,16.70
2017,07,06,00,37,16.70
2017,07,06,00,38,16.70
2017,07,06,00,39,16.70
2017,07,06,00,40,16.60
2017,07,06,00,41,16.60
2017,07,06,00,42,16.60
2017,07,06,00,43,16.60
2017,07,06,00,44,16.50
2017,07,06,00,45,16.50
2017,07,06,00,46,16.50
2017,07,06,00,47,16.50
2017,07,06,00,48,16.50
2017,07,06,00,49,16.40
2017,07,06,00,50,16.40
2017,07,06,00,51,16.40
2017,07,06,00,52,16.40
2017,07,06,00,53,16.30
2017,07,06,00,54,16.30
2017,07,06,00,55,16.30
2017,07,06,00,56,16.30
2017,07,06,00,57,16.30
2017,07,06,00,58,16.30
2017,07,06,00,59,16.30
2017,07,06,01,00,16.30
2017,07,06,01,01,16.20
2017,07,06,01,02,16.20
2017,07,06,01,03,16.20
2017,07,06,01,04,16.20
2017,07,06,01,05,16.20
2017,07,06,01,06,16.20
2017,07,06,01,07,16.20
2017,07,06,01,08,16.20
2017,07,06,01,09,16.20
2017,07,06,01,10,16.20
2017,07,06,01,11,16.20
2017,07,06,01,12,16.20
2017,07,06,01,13,16.20
2017,07,06,01,14,16.20
2017,07,06,01,15,16.20
2017,07,06,01,16,16.20
2017,07,06,01,17,16.20
2017,07,06,01,18,16.20
2017,07,06,01,19,16.10
2017,07,06,01,20,16.10
2017,07,06,01,21,16.10
2017,07,06,01,22,16.10
2017,07,06,01,23,16.10
2017,07,06,01,24,16.10
2017,07,06,01,25,16.10
2017,07,06,01,26,16.00
2017,07,06,01,27,16.00
2017,07,06,01,28,16.00
2017,07,06,01,29,16.00
2017,07,06,01,30,16.00
2017,07,06,01,31,15.90
2017,07,06,01,32,15.90
2017,07,06,01,33,15.90
2017,07,06,01,34,15.90
2017,07,06,01,35,15.80
2017,07,06,01,36,15.80
2017,07,06,01,37,15.80
2017,07,06,01,38,15.80
2017,07,06,01,39,15.80
2017,07,06,01,40,15.80
2017,07,06,01,41,15.80
2017,07,06,01,42,15.80
2017,07,06,01,43,15.80
2017,07,06,01,44,15.80
2017,07,06,01,45,15.70
2017,07,06,01,46,15.70
2017,07,06,01,47,15.70
2017,07,06,01,48,15.60
2017,07,06,01,49,15.60
2017,07,06,01,50,15.60
2017,07,06,01,51,15.50
2017,07,06,01,52,15.50
2017,07,06,01,53,15.50
2017,07,06,01,54,15.40
2017,07,06,01,55,15.40
2017,07,06,01,56,15.40
2017,07,06,01,57,15.30
2017,07,06,01,58,15.30
2017,07,06,01,59,15.30
2017,07,06,02,00,15.20
2017,07,06,02,01,15.20
2017,07,06,02,02,15.20
2017,07,06,02,03,15.20
2017,07,06,02,04,15.20
2017,07,06,02,05,15.20
2017,07,06,02,06,15.20
2017,07,06,02,07,15.20
2017,07,06,02,08,15.20
2017,07,06,02,09,15.20
2017,07,06,02,10,15.20
2017,07,06,02,11,15.20
2017,07,06,02,12,15.20
2017,07,06,02,13,15.20
2017,07,06,02,14,15.20
2017,07,06,02,15,15.20
2017,07,06,02,16,15.20
2017,07,06,02,17,15.20
2017,07,06,02,18,15.20
2017,07,06,02,19,15.20
2017,07,06,02,20,15.20
2017,07,06,02,21,15.20
2017,07,06,02,22,15.20
2017,07,06,02,23,15.20
2017,07,06,02,24,15.20
2017,07,06,02,25,15.20
2017,07,06,02,26,15.20
2017,07,06,02,27,15.20
2017,07,06,02,28,15.20
2017,07,06,02,29,15.10
2017,07,06,02,30,15.10
2017,07,06,02,31,15.10
2017,07,06,02,32,15.10
2017,07,06,02,33,15.00
2017,07,06,02,34,15.00
2017,07,06,02,35,14.90
2017,07,06,02,36,14.90
2017,07,06,02,37,14.90
2017,07,06,02,38,14.90
2017,07,06,02,39,14.80
2017,07,06,02,40,14.80
2017,07,06,02,41,14.80
2017,07,06,02,42,14.80
2017,07,06,02,43,14.80
2017,07,06,02,44,14.80
2017,07,06,02,45,14.70
2017,07,06,02,46,14.70
2017,07,06,02,47,14.70
2017,07,06,02,48,14.70
2017,07,06,02,49,14.70
2017,07,06,02,50,14.70
2017,07,06,02,51,14.70
2017,07,06,02,52,14.70
2017,07,06,02,53,14.70
2017,07,06,02,54,14.70
2017,07,06,02,55,14.70
2017,07,06,02,56,14.70
2017,07,06,02,57,14.70
2017,07,06,02,58,14.60
2017,07,06,02,59,14.60
2017,07,06,03,00,14.60
2017,07,06,03,01,14.60
2017,07,06,03,02,14.70
2017,07,06,03,03,14.70
2017,07,06,03,04,14.70
2017,07,06,03,05,14.70
2017,07,06,03,06,14.70
2017,07,06,03,07,14.70
2017,07,06,03,08,14.70
2017,07,06,03,09,14.60
2017,07,06,03,10,14.60
2017,07,06,03,11,14.60
2017,07,06,03,12,14.60
2017,07,06,03,13,14.50
2017,07,06,03,14,14.50
2017,07,06,03,15,14.50
2017,07,06,03,16,14.40
2017,07,06,03,17,14.40
2017,07,06,03,18,14.40
2017,07,06,03,19,14.40
2017,07,06,03,20,14.40
2017,07,06,03,21,14.40
2017,07,06,03,22,14.40
2017,07,06,03,23,14.40
2017,07,06,03,24,14.40
2017,07,06,03,25,14.40
2017,07,06,03,26,14.40
2017,07,06,03,27,14.40
2017,07,06,03,28,14.40
2017,07,06,03,29,14.40
2017,07,06,03,30,14.40
2017,07,06,03,31,14.40
2017,07,06,03,32,14.40
2017,07,06,03,33,14.40
2017,07,06,03,34,14.40
2017,07,06,03,35,14.40
2017,07,06,03,36,14.40
2017,07,06,03,37,14.40
2017,07,06,03,38,14.40
2017,07,06,03,39,14.40
2017,07,06,03,40,14.40
2017,07,06,03,41,14.40
2017,07,06,03,42,14.40
2017,07,06,03,43,14.40
2017,07,06,03,44,14.40
2017,07,06,03,45,14.40
2017,07,06,03,46,14.40
2017,07,06,03,47,14.40
2017,07,06,03,48,14.40
2017,07,06,03,49,14.40
2017,07,06,03,50,14.40
2017,07,06,03,51,14.40
2017,07,06,03,52,14.40
2017,07,06,03,53,14.30
2017,07,06,03,54,14.30
2017,07,06,03,55,14.30
2017,07,06,03,56,14.30
2017,07,06,03,57,14.20
2017,07,06,03,58,14.20
2017,07,06,03,59,14.20
2017,07,06,04,00,14.10
2017,07,06,04,01,14.10
2017,07,06,04,02,14.10
2017,07,06,04,03,14.10
2017,07,06,04,04,14.00
2017,07,06,04,05,14.00
2017,07,06,04,06,13.90
2017,07,06,04,07,13.90
2017,07,06,04,08,13.80
2017,07,06,04,09,13.80
2017,07,06,04,10,13.80
2017,07,06,04,11,13.70
2017,07,06,04,12,13.70
2017,07,06,04,13,13.60
2017,07,06,04,14,13.60
2017,07,06,04,15,13.60
2017,07,06,04,16,13.60
2017,07,06,04,17,13.50
2017,07,06,04,18,13.50
2017,07,06,04,19,13.50
2017,07,06,04,20,13.40
2017,07,06,04,21,13.40
2017,07,06,04,22,13.40
2017,07,06,04,23,13.40
2017,07,06,04,24,13.40
2017,07,06,04,25,13.40
2017,07,06,04,26,13.40
2017,07,06,04,27,13.40
2017,07,06,04,28,13.40
2017,07,06,04,29,13.40
2017,07,06,04,30,13.40
2017,07,06,04,31,13.50
2017,07,06,04,32,13.60
2017,07,06,04,33,13.60
2017,07,06,04,34,13.60
2017,07,06,04,35,13.70
2017,07,06,04,36,13.70
2017,07,06,04,37,13.70
2017,07,06,04,38,13.70
2017,07,06,04,39,13.80
2017,07,06,04,40,13.80
2017,07,06,04,41,13.80
2017,07,06,04,42,13.80
2017,07,06,04,43,13.80
2017,07,06,04,44,13.80
2017,07,06,04,45,13.80
2017,07,06,04,46,13.80
2017,07,06,04,47,13.80
2017,07,06,04,48,13.90
2017,07,06,04,49,13.90
2017,07,06,04,50,13.90
2017,07,06,04,51,13.90
2017,07,06,04,52,13.80
2017,07,06,04,53,13.80
2017,07,06,04,54,13.80
2017,07,06,04,55,13.80
2017,07,06,04,56,13.80
2017,07,06,04,57,13.80
2017,07,06,04,58,13.80
2017,07,06,04,59,13.80
2017,07,06,05,00,13.80
2017,07,06,05,01,13.80
2017,07,06,05,02,13.80
2017,07,06,05,03,13.80
2017,07,06,05,04,13.80
2017,07,06,05,05,13.80
2017,07,06,05,06,13.80
2017,07,06,05,07,13.80
2017,07,06,05,08,13.80
2017,07,06,05,09,13.80
2017,07,06,05,10,13.80
2017,07,06,05,11,13.80
2017,07,06,05,12,13.80
2017,07,06,05,13,13.70
2017,07,06,05,14,13.70
2017,07,06,05,15,13.70
2017,07,06,05,16,13.60
2017,07,06,05,17,13.60
2017,07,06,05,18,13.60
2017,07,06,05,19,13.60
2017,07,06,05,20,13.50
2017,07,06,05,21,13.50
2017,07,06,05,22,13.40
2017,07,06,05,23,13.40
2017,07,06,05,24,13.40
2017,07,06,05,25,13.30
2017,07,06,05,26,13.30
2017,07,06,05,27,13.30
2017,07,06,05,28,13.20
2017,07,06,05,29,13.20
2017,07,06,05,30,13.20
2017,07,06,05,31,13.20
2017,07,06,05,32,13.10
2017,07,06,05,33,13.10
2017,07,06,05,34,13.00
2017,07,06,05,35,13.00
2017,07,06,05,36,13.00
2017,07,06,05,37,12.90
2017,07,06,05,38,12.90
2017,07,06,05,39,12.90
2017,07,06,05,40,12.90
2017,07,06,05,41,13.00
2017,07,06,05,42,13.00
2017,07,06,05,43,13.10
2017,07,06,05,44,13.20
2017,07,06,05,45,13.20
2017,07,06,05,46,13.30
2017,07,06,05,47,13.40
2017,07,06,05,48,13.40
2017,07,06,05,49,13.40
2017,07,06,05,50,13.50
2017,07,06,05,51,13.50
2017,07,06,05,52,13.50
2017,07,06,05,53,13.50
2017,07,06,05,54,13.50
2017,07,06,05,55,13.60
2017,07,06,05,56,13.60
2017,07,06,05,57,13.60
2017,07,06,05,58,13.70
2017,07,06,05,59,13.70
2017,07,06,06,00,13.70
2017,07,06,06,01,13.70
2017,07,06,06,02,13.70
2017,07,06,06,03,13.80
2017,07,06,06,04,13.80
2017,07,06,06,05,13.90
2017,07,06,06,06,13.90
2017,07,06,06,07,14.00
2017,07,06,06,08,14.10
2017,07,06,06,09,14.20
2017,07,06,06,10,14.20
2017,07,06,06,11,14.30
2017,07,06,06,12,14.30
2017,07,06,06,13,14.40
2017,07,06,06,14,14.40
2017,07,06,06,15,14.40
2017,07,06,06,16,14.40
2017,07,06,06,17,14.50
2017,07,06,06,18,14.50
2017,07,06,06,19,14.50
2017,07,06,06,20,14.50
2017,07,06,06,21,14.60
2017,07,06,06,22,14.60
2017,07,06,06,23,14.60
2017,07,06,06,24,14.60
2017,07,06,06,25,14.60
2017,07,06,06,26,14.60
2017,07,06,06,27,14.70
2017,07,06,06,28,14.70
2017,07,06,06,29,14.70
2017,07,06,06,30,14.70
2017,07,06,06,31,14.70
2017,07,06,06,32,14.70
2017,07,06,06,33,14.80
2017,07,06,06,34,14.80
2017,07,06,06,35,14.80
2017,07,06,06,36,14.80
2017,07,06,06,37,14.80
2017,07,06,06,38,14.90
2017,07,06,06,39,14.90
2017,07,06,06,40,14.90
2017,07,06,06,41,14.90
2017,07,06,06,42,15.00
2017,07,06,06,43,15.00
2017,07,06,06,44,15.10
2017,07,06,06,45,15.10
2017,07,06,06,46,15.10
2017,07,06,06,47,15.10
2017,07,06,06,48,15.20
2017,07,06,06,49,15.20
2017,07,06,06,50,15.20
2017,07,06,06,51,15.30
2017,07,06,06,52,15.30
2017,07,06,06,53,15.30
2017,07,06,06,54,15.40
2017,07,06,06,55,15.40
2017,07,06,06,56,15.50
2017,07,06,06,57,15.50
2017,07,06,06,58,15.50
2017,07,06,06,59,15.60
2017,07,06,07,00,15.70
2017,07,06,07,01,15.70
2017,07,06,07,02,15.70
2017,07,06,07,03,15.70
2017,07,06,07,04,15.70
2017,07,06,07,05,15.70
2017,07,06,07,06,15.70
2017,07,06,07,07,15.70
2017,07,06,07,08,15.70
2017,07,06,07,09,15.80
2017,07,06,07,10,15.80
2017,07,06,07,11,15.80
2017,07,06,07,12,15.80
2017,07,06,07,13,15.90
2017,07,06,07,14,15.90
2017,07,06,07,15,15.90
2017,07,06,07,16,15.90
2017,07,06,07,17,15.90
2017,07,06,07,18,15.90
2017,07,06,07,19,15.90
2017,07,06,07,20,15.90
2017,07,06,07,21,15.90
2017,07,06,07,22,15.90
2017,07,06,07,23,15.90
2017,07,06,07,24,15.90
2017,07,06,07,25,15.90
2017,07,06,07,26,15.90
2017,07,06,07,27,15.90
2017,07,06,07,28,15.90
2017,07,06,07,29,15.90
2017,07,06,07,30,15.90
2017,07,06,07,31,15.90
2017,07,06,07,32,15.90
2017,07,06,07,33,15.90
2017,07,06,07,34,15.90
2017,07,06,07,35,16.00
2017,07,06,07,36,16.00
2017,07,06,07,37,16.00
2017,07,06,07,38,16.00
2017,07,06,07,39,16.00
2017,07,06,07,40,16.00
2017,07,06,07,41,16.00
2017,07,06,07,42,16.00
2017,07,06,07,43,16.00
2017,07,06,07,44,16.00
2017,07,06,07,45,15.90
2017,07,06,07,46,15.90
2017,07,06,07,47,15.90
2017,07,06,07,48,15.90
2017,07,06,07,49,15.90
2017,07,06,07,50,16.00
2017,07,06,07,51,16.00
2017,07,06,07,52,16.00
2017,07,06,07,53,16.00
2017,07,06,07,54,16.00
2017,07,06,07,55,16.00
2017,07,06,07,56,15.90
2017,07,06,07,57,15.90
2017,07,06,07,58,15.90
2017,07,06,07,59,15.90
2017,07,06,08,00,16.00
2017,07,06,08,01,16.00
2017,07,06,08,02,16.00
2017,07,06,08,03,16.10
2017,07,06,08,04,16.10
2017,07,06,08,05,16.10
2017,07,06,08,06,16.10
2017,07,06,08,07,16.10
2017,07,06,08,08,16.20
2017,07,06,08,09,16.10
2017,07,06,08,10,16.10
2017,07,06,08,11,16.10
2017,07,06,08,12,16.10
2017,07,06,08,13,16.10
2017,07,06,08,14,16.00
2017,07,06,08,15,16.00
2017,07,06,08,16,16.10
2017,07,06,08,17,16.00
2017,07,06,08,18,16.10
2017,07,06,08,19,16.10
2017,07,06,08,20,16.10
2017,07,06,08,21,16.10
2017,07,06,08,22,16.10
2017,07,06,08,23,16.20
2017,07,06,08,24,16.20
2017,07,06,08,25,16.20
2017,07,06,08,26,16.30
2017,07,06,08,27,16.30
2017,07,06,08,28,16.30
2017,07,06,08,29,16.30
2017,07,06,08,30,16.30
2017,07,06,08,31,16.30
2017,07,06,08,32,16.40
2017,07,06,08,33,16.40
2017,07,06,08,34,16.40
2017,07,06,08,35,16.40
2017,07,06,08,36,16.40
2017,07,06,08,37,16.40
2017,07,06,08,38,16.40
2017,07,06,08,39,16.40
2017,07,06,08,40,16.30
2017,07,06,08,41,16.30
2017,07,06,08,42,16.30
2017,07,06,08,43,16.30
2017,07,06,08,44,16.30
2017,07,06,08,45,16.30
2017,07,06,08,46,16.30
2017,07,06,08,47,16.30
2017,07,06,08,48,16.30
2017,07,06,08,49,16.30
2017,07,06,08,50,16.40
2017,07,06,08,51,16.40
2017,07,06,08,52,16.40
2017,07,06,08,53,16.40
2017,07,06,08,54,16.40
2017,07,06,08,55,16.40
2017,07,06,08,56,16.50
2017,07,06,08,57,16.50
2017,07,06,08,58,16.50
2017,07,06,08,59,16.50
2017,07,06,09,00,16.50
2017,07,06,09,01,16.50
2017,07,06,09,02,16.50
2017,07,06,09,03,16.50
2017,07,06,09,04,16.40
2017,07,06,09,05,16.40
2017,07,06,09,06,16.40
2017,07,06,09,07,16.40
2017,07,06,09,08,16.50
2017,07,06,09,09,16.50
2017,07,06,09,10,16.50
2017,07,06,09,11,16.50
2017,07,06,09,12,16.60
2017,07,06,09,13,16.60
2017,07,06,09,14,16.60
2017,07,06,09,15,16.60
2017,07,06,09,16,16.60
2017,07,06,09,17,16.60
2017,07,06,09,18,16.70
2017,07,06,09,19,16.70
2017,07,06,09,20,16.70
2017,07,06,09,21,16.70
2017,07,06,09,22,16.80
2017,07,06,09,23,16.80
2017,07,06,09,24,16.90
2017,07,06,09,25,16.90
2017,07,06,09,26,17.00
2017,07,06,09,27,17.00
2017,07,06,09,28,17.10
2017,07,06,09,29,17.10
2017,07,06,09,30,17.20
2017,07,06,09,31,17.20
2017,07,06,09,32,17.30
2017,07,06,09,33,17.30
2017,07,06,09,34,17.30
2017,07,06,09,35,17.40
2017,07,06,09,36,17.40
2017,07,06,09,37,17.40
2017,07,06,09,38,17.40
2017,07,06,09,39,17.50
2017,07,06,09,40,17.50
2017,07,06,09,41,17.50
2017,07,06,09,42,17.50
2017,07,06,09,43,17.50
2017,07,06,09,44,17.50
2017,07,06,09,45,17.50
2017,07,06,09,46,17.60
2017,07,06,09,47,17.60
2017,07,06,09,48,17.60
2017,07,06,09,49,17.60
2017,07,06,09,50,17.60
2017,07,06,09,51,17.60
2017,07,06,09,52,17.70
2017,07,06,09,53,17.70
2017,07,06,09,54,17.70
2017,07,06,09,55,17.70
2017,07,06,09,56,17.70
2017,07,06,09,57,17.70
2017,07,06,09,58,17.80
2017,07,06,09,59,17.80
2017,07,06,10,00,17.70
2017,07,06,10,01,17.80
2017,07,06,10,02,17.80
2017,07,06,10,03,17.70
2017,07,06,10,04,17.70
2017,07,06,10,05,17.70
2017,07,06,10,06,17.70
2017,07,06,10,07,17.70
2017,07,06,10,08,17.70
2017,07,06,10,09,17.70
2017,07,06,10,10,17.70
2017,07,06,10,11,17.70
2017,07,06,10,12,17.70
2017,07,06,10,13,17.70
2017,07,06,10,14,17.70
2017,07,06,10,15,17.70
2017,07,06,10,16,17.70
2017,07,06,10,17,17.70
2017,07,06,10,18,17.70
2017,07,06,10,19,17.70
2017,07,06,10,20,17.70
2017,07,06,10,21,17.80
2017,07,06,10,22,17.80
2017,07,06,10,23,17.90
2017,07,06,10,24,18.00
2017,07,06,10,25,18.00
2017,07,06,10,26,18.10
2017,07,06,10,27,18.10
2017,07,06,10,28,18.20
2017,07,06,10,29,18.20
2017,07,06,10,30,18.20
2017,07,06,10,31,18.30
2017,07,06,10,32,18.30
2017,07,06,10,33,18.30
2017,07,06,10,34,18.40
2017,07,06,10,35,18.40
2017,07,06,10,36,18.40
2017,07,06,10,37,18.40
2017,07,06,10,38,18.40
2017,07,06,10,39,18.40
2017,07,06,10,40,18.40
2017,07,06,10,41,18.50
2017,07,06,10,42,18.50
2017,07,06,10,43,18.60
2017,07,06,10,44,18.60
2017,07,06,10,45,18.60
2017,07,06,10,46,18.70
2017,07,06,10,47,18.70
2017,07,06,10,48,18.70
2017,07,06,10,49,18.70
2017,07,06,10,50,18.80
2017,07,06,10,51,18.80
2017,07,06,10,52,18.90
2017,07,06,10,53,19.00
2017,07,06,10,54,19.10
2017,07,06,10,55,19.10
2017,07,06,10,56,19.10
2017,07,06,10,57,19.10
2017,07,06,10,58,19.10
2017,07,06,10,59,19.20
2017,07,06,11,00,19.30
2017,07,06,11,01,19.30
2017,07,06,11,02,19.40
2017,07,06,11,03,19.50
2017,07,06,11,04,19.60
2017,07,06,11,05,19.70
2017,07,06,11,06,19.80
2017,07,06,11,07,19.80
2017,07,06,11,08,19.80
2017,07,06,11,09,19.80
2017,07,06,11,10,19.90
2017,07,06,11,11,19.90
2017,07,06,11,12,19.90
2017,07,06,11,13,19.90
2017,07,06,11,14,19.90
2017,07,06,11,15,20.00
2017,07,06,11,16,20.00
2017,07,06,11,17,20.00
2017,07,06,11,18,20.10
2017,07,06,11,19,20.10
2017,07,06,11,20,20.10
2017,07,06,11,21,20.10
2017,07,06,11,22,20.10
2017,07,06,11,23,20.10
2017,07,06,11,24,20.10
2017,07,06,11,25,20.20
2017,07,06,11,26,20.20
2017,07,06,11,27,20.20
2017,07,06,11,28,20.20
2017,07,06,11,29,20.20
2017,07,06,11,30,20.30
2017,07,06,11,31,20.30
2017,07,06,11,32,20.30
2017,07,06,11,33,20.30
2017,07,06,11,34,20.40
2017,07,06,11,35,20.40
2017,07,06,11,36,20.50
2017,07,06,11,37,20.60
2017,07,06,11,38,20.60
2017,07,06,11,39,20.60
2017,07,06,11,40,20.60
2017,07,06,11,41,20.70
2017,07,06,11,42,20.70
2017,07,06,11,43,20.70
2017,07,06,11,44,20.70
2017,07,06,11,45,20.70
2017,07,06,11,46,20.70
2017,07,06,11,47,20.70
2017,07,06,11,48,20.70
2017,07,06,11,49,20.60
2017,07,06,11,50,20.60
2017,07,06,11,51,20.60
2017,07,06,11,52,20.50
2017,07,06,11,53,20.40
2017,07,06,11,54,20.40
2017,07,06,11,55,20.40
2017,07,06,11,56,20.50
2017,07,06,11,57,20.50
2017,07,06,11,58,20.60
2017,07,06,11,59,20.70
2017,07,06,12,00,20.80
2017,07,06,12,01,20.80
2017,07,06,12,02,20.90
2017,07,06,12,03,20.90
2017,07,06,12,04,21.00
2017,07,06,12,05,21.10
2017,07,06,12,06,21.10
2017,07,06,12,07,21.20
2017,07,06,12,08,21.30
2017,07,06,12,09,21.30
2017,07,06,12,10,21.40
2017,07,06,12,11,21.40
2017,07,06,12,12,21.50
2017,07,06,12,13,21.50
2017,07,06,12,14,21.50
2017,07,06,12,15,21.50
2017,07,06,12,16,21.60
2017,07,06,12,17,21.60
2017,07,06,12,18,21.60
2017,07,06,12,19,21.70
2017,07,06,12,20,21.70
2017,07,06,12,21,21.80
2017,07,06,12,22,21.90
2017,07,06,12,23,22.00
2017,07,06,12,24,22.10
2017,07,06,12,25,22.10
2017,07,06,12,26,22.10
2017,07,06,12,27,22.10
2017,07,06,12,28,22.00
2017,07,06,12,29,22.00
2017,07,06,12,30,22.00
2017,07,06,12,31,22.10
2017,07,06,12,32,22.20
2017,07,06,12,33,22.20
2017,07,06,12,34,22.20
2017,07,06,12,35,22.10
2017,07,06,12,36,22.10
2017,07,06,12,37,22.00
2017,07,06,12,38,22.00
2017,07,06,12,39,22.00
2017,07,06,12,40,22.00
2017,07,06,12,41,22.00
2017,07,06,12,42,22.00
2017,07,06,12,43,22.00
2017,07,06,12,44,22.10
2017,07,06,12,45,22.10
2017,07,06,12,46,22.20
2017,07,06,12,47,22.20
2017,07,06,12,48,22.20
2017,07,06,12,49,22.20
2017,07,06,12,50,22.10
2017,07,06,12,51,22.10
2017,07,06,12,52,22.00
2017,07,06,12,53,22.00
2017,07,06,12,54,21.90
2017,07,06,12,55,21.90
2017,07,06,12,56,21.90
2017,07,06,12,57,21.90
2017,07,06,12,58,22.00
2017,07,06,12,59,22.10
2017,07,06,13,00,22.20
2017,07,06,13,01,22.10
2017,07,06,13,02,22.10
2017,07,06,13,03,22.10
2017,07,06,13,04,22.10
2017,07,06,13,05,22.10
2017,07,06,13,06,22.10
2017,07,06,13,07,22.10
2017,07,06,13,08,22.10
2017,07,06,13,09,22.20
2017,07,06,13,10,22.20
2017,07,06,13,11,22.10
2017,07,06,13,12,22.00
2017,07,06,13,13,21.90
2017,07,06,13,14,21.80
2017,07,06,13,15,21.70
2017,07,06,13,16,21.70
2017,07,06,13,17,21.60
2017,07,06,13,18,21.60
2017,07,06,13,19,21.50
2017,07,06,13,20,21.50
2017,07,06,13,21,21.50
2017,07,06,13,22,21.60
2017,07,06,13,23,21.70
2017,07,06,13,24,21.80
2017,07,06,13,25,21.90
2017,07,06,13,26,21.90
2017,07,06,13,27,21.90
2017,07,06,13,28,22.00
2017,07,06,13,29,22.00
2017,07,06,13,30,22.10
2017,07,06,13,31,22.10
2017,07,06,13,32,22.10
2017,07,06,13,33,22.00
2017,07,06,13,34,22.00
2017,07,06,13,35,21.90
2017,07,06,13,36,21.90
2017,07,06,13,37,21.80
2017,07,06,13,38,21.80
2017,07,06,13,39,21.90
2017,07,06,13,40,21.90
2017,07,06,13,41,22.00
2017,07,06,13,42,22.10
2017,07,06,13,43,22.20
2017,07,06,13,44,22.20
2017,07,06,13,45,22.20
2017,07,06,13,46,22.20
2017,07,06,13,47,22.20
2017,07,06,13,48,22.10
2017,07,06,13,49,22.10
2017,07,06,13,50,22.10
2017,07,06,13,51,22.20
2017,07,06,13,52,22.20
2017,07,06,13,53,22.20
2017,07,06,13,54,22.20
2017,07,06,13,55,22.10
2017,07,06,13,56,22.10
2017,07,06,13,57,22.10
2017,07,06,13,58,22.20
2017,07,06,13,59,22.10
2017,07,06,14,00,22.10
2017,07,06,14,01,22.10
2017,07,06,14,02,22.10
2017,07,06,14,03,22.20
2017,07,06,14,04,22.30
2017,07,06,14,05,22.40
2017,07,06,14,06,22.40
2017,07,06,14,07,22.50
2017,07,06,14,08,22.60
2017,07,06,14,09,22.60
2017,07,06,14,10,22.60
2017,07,06,14,11,22.60
2017,07,06,14,12,22.50
2017,07,06,14,13,22.50
2017,07,06,14,14,22.40
2017,07,06,14,15,22.40
2017,07,06,14,16,22.30
2017,07,06,14,17,22.30
2017,07,06,14,18,22.30
2017,07,06,14,19,22.30
2017,07,06,14,20,22.30
2017,07,06,14,21,22.30
2017,07,06,14,22,22.40
2017,07,06,14,23,22.50
2017,07,06,14,24,22.60
2017,07,06,14,25,22.70
2017,07,06,14,26,22.70
2017,07,06,14,27,22.70
2017,07,06,14,28,22.80
2017,07,06,14,29,22.80
2017,07,06,14,30,22.80
2017,07,06,14,31,22.80
2017,07,06,14,32,22.90
2017,07,06,14,33,22.90
2017,07,06,14,34,23.00
2017,07,06,14,35,23.10
2017,07,06,14,36,23.20
2017,07,06,14,37,23.30
2017,07,06,14,38,23.30
2017,07,06,14,39,23.30
2017,07,06,14,40,23.30
2017,07,06,14,41,23.30
2017,07,06,14,42,23.30
2017,07,06,14,43,23.40
2017,07,06,14,44,23.50
2017,07,06,14,45,23.50
2017,07,06,14,46,23.60
2017,07,06,14,47,23.60
2017,07,06,14,48,23.70
2017,07,06,14,49,23.80
2017,07,06,14,50,23.80
2017,07,06,14,51,23.80
2017,07,06,14,52,23.80
2017,07,06,14,53,23.80
2017,07,06,14,54,23.70
2017,07,06,14,55,23.70
2017,07,06,14,56,23.60
2017,07,06,14,57,23.60
2017,07,06,14,58,23.50
2017,07,06,14,59,23.50
2017,07,06,15,00,23.40
2017,07,06,15,01,23.30
2017,07,06,15,02,23.20
2017,07,06,15,03,23.10
2017,07,06,15,04,23.00
2017,07,06,15,05,22.90
2017,07,06,15,06,22.80
2017,07,06,15,07,22.70
2017,07,06,15,08,22.70
2017,07,06,15,09,22.60
2017,07,06,15,10,22.60
2017,07,06,15,11,22.60
2017,07,06,15,12,22.70
2017,07,06,15,13,22.80
2017,07,06,15,14,22.80
2017,07,06,15,15,22.80
2017,07,06,15,16,22.70
2017,07,06,15,17,22.70
2017,07,06,15,18,22.70
2017,07,06,15,19,22.70
2017,07,06,15,20,22.70
2017,07,06,15,21,22.70
2017,07,06,15,22,22.70
2017,07,06,15,23,22.70
2017,07,06,15,24,22.70
2017,07,06,15,25,22.70
2017,07,06,15,26,22.70
2017,07,06,15,27,22.70
2017,07,06,15,28,22.70
2017,07,06,15,29,22.80
2017,07,06,15,30,22.80
2017,07,06,15,31,22.70
2017,07,06,15,32,22.70
2017,07,06,15,33,22.60
2017,07,06,15,34,22.50
2017,07,06,15,35,22.50
2017,07,06,15,36,22.50
2017,07,06,15,37,22.50
2017,07,06,15,38,22.40
2017,07,06,15,39,22.40
2017,07,06,15,40,22.30
2017,07,06,15,41,22.30
2017,07,06,15,42,22.20
2017,07,06,15,43,22.20
2017,07,06,15,44,22.20
2017,07,06,15,45,22.20
2017,07,06,15,46,22.20
2017,07,06,15,47,22.20
2017,07,06,15,48,22.20
2017,07,06,15,49,22.20
2017,07,06,15,50,22.10
2017,07,06,15,51,22.10
2017,07,06,15,52,22.10
2017,07,06,15,53,22.10
2017,07,06,15,54,22.10
2017,07,06,15,55,22.20
2017,07,06,15,56,22.20
2017,07,06,15,57,22.30
2017,07,06,15,58,22.40
2017,07,06,15,59,22.50
2017,07,06,16,00,22.60
2017,07,06,16,01,22.70
2017,07,06,16,02,22.70
2017,07,06,16,03,22.80
2017,07,06,16,04,22.80
2017,07,06,16,05,22.90
2017,07,06,16,06,23.00
2017,07,06,16,07,23.00
2017,07,06,16,08,23.10
2017,07,06,16,09,23.20
2017,07,06,16,10,23.30
2017,07,06,16,11,23.30
2017,07,06,16,12,23.40
2017,07,06,16,13,23.40
2017,07,06,16,14,23.50
2017,07,06,16,15,23.60
2017,07,06,16,16,23.70
2017,07,06,16,17,23.80
2017,07,06,16,18,23.90
2017,07,06,16,19,23.90
2017,07,06,16,20,23.90
2017,07,06,16,21,24.00
2017,07,06,16,22,24.00
2017,07,06,16,23,24.10
2017,07,06,16,24,24.20
2017,07,06,16,25,24.20
2017,07,06,16,26,24.20
2017,07,06,16,27,24.20
2017,07,06,16,28,24.20
2017,07,06,16,29,24.20
2017,07,06,16,30,24.30
2017,07,06,16,31,24.30
2017,07,06,16,32,24.30
2017,07,06,16,33,24.20
2017,07,06,16,34,24.20
2017,07,06,16,35,24.20
2017,07,06,16,36,24.10
2017,07,06,16,37,24.10
2017,07,06,16,38,24.10
2017,07,06,16,39,24.10
2017,07,06,16,40,24.20
2017,07,06,16,41,24.20
2017,07,06,16,42,24.20
2017,07,06,16,43,24.20
2017,07,06,16,44,24.20
2017,07,06,16,45,24.20
2017,07,06,16,46,24.20
2017,07,06,16,47,24.20
2017,07,06,16,48,24.30
2017,07,06,16,49,24.30
2017,07,06,16,50,24.30
2017,07,06,16,51,24.40
2017,07,06,16,52,24.40
2017,07,06,16,53,24.40
2017,07,06,16,54,24.40
2017,07,06,16,55,24.40
2017,07,06,16,56,24.30
2017,07,06,16,57,24.30
2017,07,06,16,58,24.30
2017,07,06,16,59,24.20
2017,07,06,17,00,24.10
2017,07,06,17,01,24.10
2017,07,06,17,02,24.10
2017,07,06,17,03,24.20
2017,07,06,17,04,24.20
2017,07,06,17,05,24.20
2017,07,06,17,06,24.20
2017,07,06,17,07,24.20
2017,07,06,17,08,24.20
2017,07,06,17,09,24.30
2017,07,06,17,10,24.30
2017,07,06,17,11,24.20
2017,07,06,17,12,24.20
2017,07,06,17,13,24.20
2017,07,06,17,14,24.20
2017,07,06,17,15,24.30
2017,07,06,17,16,24.30
2017,07,06,17,17,24.30
2017,07,06,17,18,24.30
2017,07,06,17,19,24.30